[[{"header":{"parameterUnit":"m.s-1","parameterCategory":1,"la1":30.2991,"la2":30.254,"lo1":-89.0895,"lo2":-89.0444,"dy":0.0017,"dx":0.0017,"nx":28,"ny":28,"refTime":"2025-04-19T03:00:00:Z","depth":0,"parameterNumber":2,"parameterNumberName":"U-component_of_WINDS"},"data":[0,0,0,0,0,0,0,0,0,0,0,0,0,0,0,0,0,0,0,0,0,0,0,0,0,0,0,0,0,0,0,0,0,0,0,0,0,0,0,0,0,0,0,0,0,0,0,0,0,0,0,0,0,0,0,0,0,0,-3.5231,-3.5232,0,-3.5359,-3.536,-3.5362,-3.5358,-3.5356,-3.5354,-3.5353,-3.5483,-3.5488,-3.5493,0,0,0,0,0,0,0,0,0,0,0,0,0,-3.4983,-3.4988,-3.5231,-3.5232,-3.5234,-3.5358,-3.536,-3.5362,-3.5358,-3.5356,-3.5354,-3.5352,-3.5481,-3.5487,-3.5493,0,0,0,0,0,0,0,0,0,0,0,0,0,-3.5099,-3.4989,-3.523,-3.5247,-3.525,-3.5358,-3.536,-3.5362,-3.5359,-3.5356,-3.5353,-3.5351,-3.5479,-3.5486,-3.5494,-3.5594,0,0,-3.5517,-3.5521,0,0,0,0,0,0,0,0,-3.5092,-3.5108,-3.5243,-3.5246,-3.5249,-3.534,-3.5321,-3.544,-3.5359,-3.5317,-3.5353,-3.535,-3.5437,-3.5448,-3.5478,-3.56,-3.5605,-3.5518,-3.5523,-3.5526,-3.5528,0,0,0,0,0,0,0,-3.5084,-3.5102,-3.5281,-3.5245,-3.5249,-3.5248,-3.5262,-3.5343,-3.539,-3.5321,-3.5321,-3.5336,-3.5438,-3.547,-3.5481,-3.5607,-3.5518,-3.5524,-3.5529,-3.5532,-3.5818,-3.5821,0,0,0,0,0,0,-3.5073,-3.5096,-3.5277,-3.5285,-3.5163,-3.5255,-3.527,-3.5313,-3.5389,-3.5399,-3.5338,-3.5335,-3.5459,-3.5472,-3.5485,-3.5607,-3.5526,-3.5533,-3.5537,-3.5815,-3.5819,-3.5822,0,0,0,0,0,0,-3.5067,-3.5089,-3.5272,-3.5191,-3.5214,-3.5262,-3.5311,-3.5317,-3.5349,-3.5403,-3.5411,-3.5362,-3.5457,-3.5475,-3.5567,-3.5611,-3.5536,-3.5543,-3.5812,-3.5816,-3.582,-3.5851,0,0,0,0,0,0,-3.506,-3.5087,-3.5125,-3.5191,-3.5218,-3.5352,-3.5313,-3.5322,-3.5363,-3.536,-3.5427,-3.5436,-3.5456,-3.5556,-3.5575,-3.5621,-3.5549,-3.5808,-3.5814,-3.5819,-3.5846,-3.5856,-3.5865,0,0,0,0,0,-3.5051,-3.5129,-3.5127,-3.5149,-3.5267,-3.5354,-3.5369,-3.5392,-3.5366,-3.5405,-3.544,-3.5434,-3.5604,-3.5565,-3.5586,-3.5635,-3.5805,-3.5812,-3.5819,-3.5842,-3.5854,-3.5864,0,0,0,0,0,0,-3.5066,-3.5137,-3.5137,-3.5238,-3.529,-3.5353,-3.5403,-3.5403,-3.5464,-3.5459,-3.5484,-3.5499,-3.5591,-3.5623,-3.5578,-3.5736,-3.5701,-3.5713,-3.5712,-3.5724,-3.5733,-3.5723,-3.5556,0,0,0,0,0,-3.5081,-3.5146,-3.5205,-3.5288,-3.5315,-3.5354,-3.5393,-3.5406,-3.5461,-3.5483,-3.5524,-3.5577,-3.5643,-3.5685,-3.5749,-3.5852,-3.5866,-3.5896,-3.5905,-3.5912,-3.5921,-3.5978,-3.5992,-3.5844,-3.5844,-3.5844,0,0,-3.5112,-3.516,-3.5199,-3.5292,-3.5334,-3.5401,-3.5373,-3.5444,-3.5494,-3.5494,-3.5583,-3.5616,-3.5677,-3.5775,-3.582,-3.5804,-3.5966,-3.5921,-3.5926,-3.5932,-3.5987,-3.6001,-3.6013,-3.5849,-3.5848,-3.5847,0,0,-3.5203,-3.5246,-3.532,-3.5363,-3.5427,-3.5453,-3.5471,-3.5535,-3.5557,-3.5647,-3.5649,-3.5708,-3.582,-3.5864,-3.5901,-3.601,-3.6007,-3.6031,-3.6077,-3.6133,-3.6144,-3.6155,-3.6193,-3.6207,-3.604,-3.604,-3.604,0,-3.5234,-3.5334,-3.5358,-3.543,-3.5471,-3.5475,-3.555,-3.559,-3.5672,-3.57,-3.5681,-3.5823,-3.5864,-3.5973,-3.6,-3.603,-3.6051,-3.6022,-3.6141,-3.6152,-3.6162,-3.6198,-3.6213,-3.6042,-3.6042,-3.6042,-3.6041,0,-3.5369,-3.5439,-3.5491,-3.557,-3.5617,-3.569,-3.5725,-3.577,-3.5779,-3.5807,-3.59,-3.595,-3.6024,-3.6051,-3.606,-3.6161,-3.6149,-3.6136,-3.61,-3.6178,-3.6213,-3.6227,-3.6045,-3.6045,-3.6044,-3.6043,0,0,-3.5471,-3.5563,-3.5581,-3.5617,-3.5689,-3.5744,-3.5818,-3.589,-3.5928,-3.5985,-3.6047,-3.6143,-3.6131,-3.6173,-3.6188,-3.6236,-3.6319,-3.6217,-3.6218,-3.6233,-3.6433,-3.6442,-3.6458,-3.6318,-3.6321,-3.6323,-3.6428,0,-3.5568,-3.5699,-3.5723,-3.5837,-3.5902,-3.5907,-3.5972,-3.6023,-3.6052,-3.6111,-3.6143,-3.621,-3.6189,-3.6215,-3.6263,-3.6299,-3.6359,-3.6292,-3.6376,-3.6379,-3.6359,-3.6476,-3.6486,-3.6582,-3.6442,-3.6444,-3.6446,0,-3.57,-3.576,-3.5881,-3.5944,-3.5972,-3.603,-3.6098,-3.6155,-3.6213,-3.6231,-3.6279,-3.6288,-3.6365,-3.6328,-3.6434,-3.6388,-3.6424,-3.6447,-3.6451,-3.6459,-3.6416,-3.6486,-3.6613,-3.6627,-3.6468,-3.6466,-3.6464,0,-3.5761,-3.5872,-3.5959,-3.599,-3.6067,-3.6107,-3.6141,-3.6196,-3.6239,-3.6299,-3.6327,-3.6395,-3.6432,-3.6485,-3.6513,-3.6484,-3.6617,-3.6583,-3.6634,-3.6633,-3.666,-3.6658,-3.6793,-3.6686,-3.6686,-3.6685,-3.6685,0,-3.5867,-3.594,-3.5988,-3.6041,-3.6123,-3.615,-3.6231,-3.6265,-3.6315,-3.6374,-3.6384,-3.6439,-3.6473,-3.6534,-3.6557,-3.6641,-3.6658,-3.6674,-3.6679,-3.6673,-3.6671,-3.6696,-3.6689,-3.6689,-3.6688,-3.6688,-3.6687,0,-3.5948,-3.5983,-3.6078,-3.6143,-3.6161,-3.6219,-3.6275,-3.6327,-3.6357,-3.6432,-3.6451,-3.6498,-3.657,-3.6603,-3.6693,-3.6708,-3.6804,-3.6805,-3.6784,-3.6785,-3.6834,-3.6829,-3.699,-3.7012,-3.689,-3.6892,-3.6893,0,-3.6013,-3.607,-3.6141,-3.6182,-3.6217,-3.6283,-3.6326,-3.6356,-3.64,-3.6472,-3.6515,-3.6588,-3.6647,-3.6763,-3.6804,-3.6873,-3.6875,-3.6927,-3.6885,-3.6877,-3.6875,-3.687,-3.6876,-3.6933,-3.6935,-3.6936,-3.6936,0,-3.6124,-3.6139,-3.6201,-3.627,-3.6321,-3.6377,-3.6431,-3.6464,-3.6502,-3.6552,-3.6626,-3.6673,-3.6765,-3.6837,-3.6908,-3.6943,-3.6946,-3.6949,-3.6965,-3.6958,-3.6943,-3.6951,-3.6803,-3.6945,-3.6944,-3.6944,-3.6943,-3.6943,-3.6199,-3.625,-3.6308,-3.6377,-3.6421,-3.6472,-3.6524,-3.656,-3.6623,-3.67,-3.6714,-3.6792,-3.685,-3.6947,-3.6984,-3.7047,-3.7034,-3.7057,-3.7062,-3.7067,-3.7069,-3.6935,-3.706,-3.706,-3.706,-3.7059,-3.7059,0,-3.631,-3.6348,-3.6411,-3.6487,-3.6542,-3.6541,-3.6601,-3.6647,-3.6716,-3.677,-3.6829,-3.6914,-3.6984,-3.7032,-3.7103,-3.7144,-3.7147,-3.7162,-3.7158,-3.7166,-3.7077,-3.7056,-3.7158,-3.7158,-3.7158,-3.7158,-3.7158,-3.7158,-3.6374,-3.6459,-3.6481,-3.6589,-3.6626,-3.6704,-3.6738,-3.6785,-3.6828,-3.6923,-3.6982,-3.7013,-3.7064,-3.7139,-3.7204,-3.7216,-3.7242,-3.7256,-3.7268,-3.7183,-3.7173,-3.7163,-3.7143,-3.7262,-3.7262,-3.7352,-3.7353,-3.7354]},{"header":{"parameterUnit":"m.s-1","parameterCategory":1,"la1":30.2991,"la2":30.254,"lo1":-89.0895,"lo2":-89.0444,"dy":0.0017,"dx":0.0017,"nx":28,"ny":28,"refTime":"2025-04-19T03:00:00:Z","depth":0,"parameterNumber":3,"parameterNumberName":"V-component_of_WINDS"},"data":[0,0,0,0,0,0,0,0,0,0,0,0,0,0,0,0,0,0,0,0,0,0,0,0,0,0,0,0,0,0,0,0,0,0,0,0,0,0,0,0,0,0,0,0,0,0,0,0,0,0,0,0,0,0,0,0,0,0,2.8807,2.8808,0,2.8876,2.8876,2.8877,2.888,2.8879,2.8878,2.8877,2.8944,2.8947,2.8949,0,0,0,0,0,0,0,0,0,0,0,0,0,2.8677,2.868,2.8807,2.8808,2.8809,2.8876,2.8876,2.8877,2.888,2.8879,2.8878,2.8877,2.8943,2.8946,2.8949,0,0,0,0,0,0,0,0,0,0,0,0,0,2.8738,2.868,2.8807,2.8818,2.882,2.8875,2.8877,2.8878,2.888,2.8879,2.8878,2.8877,2.8942,2.8946,2.895,2.8997,0,0,2.8961,2.8963,0,0,0,0,0,0,0,0,2.8735,2.8743,2.8816,2.8818,2.882,2.8868,2.8855,2.8918,2.888,2.8857,2.8877,2.8876,2.892,2.8925,2.894,2.9001,2.9003,2.8962,2.8964,2.8966,2.8967,0,0,0,0,0,0,0,2.8731,2.874,2.8834,2.8817,2.8819,2.8819,2.8827,2.8867,2.8894,2.8859,2.8859,2.8868,2.892,2.8937,2.8942,2.9004,2.8961,2.8965,2.8967,2.8969,2.9109,2.9111,0,0,0,0,0,0,2.8725,2.8737,2.8832,2.8836,2.8774,2.8823,2.8831,2.8854,2.8894,2.8899,2.8869,2.8868,2.8931,2.8938,2.8944,2.9004,2.8966,2.8969,2.8971,2.9108,2.911,2.9111,0,0,0,0,0,0,2.8722,2.8733,2.8829,2.8787,2.8799,2.8826,2.8852,2.8856,2.8872,2.8901,2.8906,2.8881,2.893,2.8939,2.8985,2.9007,2.8971,2.8974,2.9106,2.9108,2.911,2.9124,0,0,0,0,0,0,2.8718,2.8732,2.8751,2.8787,2.8801,2.8869,2.8853,2.8858,2.8879,2.8878,2.8914,2.8918,2.893,2.8979,2.8989,2.9011,2.8977,2.9104,2.9107,2.911,2.9122,2.9126,2.913,0,0,0,0,0,2.8713,2.875,2.8752,2.8763,2.8825,2.887,2.8878,2.8892,2.8881,2.89,2.8919,2.8917,2.9003,2.8984,2.8995,2.9019,2.9103,2.9106,2.9109,2.912,2.9125,2.913,0,0,0,0,0,0,2.8714,2.8755,2.8757,2.8807,2.8836,2.8871,2.8895,2.8897,2.8928,2.8926,2.8941,2.8949,2.8995,2.9011,2.8989,2.9068,2.9051,2.9057,2.9056,2.9061,2.9065,2.906,2.898,0,0,0,0,0,2.872,2.8754,2.8788,2.8829,2.8844,2.8867,2.8887,2.8896,2.8925,2.8936,2.8959,2.8986,2.902,2.9041,2.9074,2.9124,2.9132,2.9146,2.915,2.9154,2.9158,2.9188,2.9195,2.9122,2.9122,2.9122,0,0,2.8733,2.876,2.878,2.883,2.8853,2.8888,2.8877,2.8913,2.8939,2.8942,2.8987,2.9004,2.9036,2.9086,2.9108,2.91,2.918,2.9158,2.916,2.9163,2.9192,2.9199,2.9205,2.9124,2.9124,2.9123,0,0,2.8774,2.8798,2.8836,2.8859,2.8895,2.8911,2.892,2.8955,2.8968,2.9014,2.9017,2.9047,2.9104,2.9128,2.9147,2.92,2.92,2.921,2.9232,2.9261,2.9266,2.9272,2.9291,2.9298,2.9214,2.9214,2.9214,0,2.8785,2.8839,2.8854,2.8892,2.8914,2.892,2.8958,2.898,2.9024,2.9039,2.903,2.9104,2.9125,2.9181,2.9194,2.9209,2.922,2.9206,2.9265,2.927,2.9275,2.9294,2.9301,2.9215,2.9215,2.9215,2.9215,0,2.8851,2.8888,2.8914,2.8958,2.8984,2.9021,2.9042,2.9066,2.9073,2.9089,2.9137,2.9164,2.9203,2.9216,2.9222,2.9273,2.9267,2.9262,2.9245,2.9283,2.9301,2.9308,2.9217,2.9216,2.9216,2.9216,0,0,2.8893,2.8948,2.8957,2.8978,2.9019,2.9047,2.9086,2.9125,2.9145,2.9176,2.9209,2.9258,2.9253,2.9275,2.9284,2.9309,2.9351,2.9301,2.9302,2.931,2.941,2.9415,2.9423,2.9352,2.9353,2.9354,2.9408,0,2.8939,2.9009,2.9025,2.9085,2.912,2.9127,2.916,2.9189,2.9206,2.9238,2.9256,2.9291,2.9282,2.9296,2.9321,2.9341,2.9371,2.9337,2.9382,2.9384,2.9374,2.9432,2.9437,2.9485,2.9415,2.9416,2.9417,0,2.9002,2.9037,2.91,2.9138,2.9153,2.9183,2.9222,2.9252,2.9285,2.9296,2.9322,2.9329,2.9369,2.9351,2.9407,2.9384,2.9403,2.9416,2.9418,2.9423,2.9402,2.9439,2.9501,2.9509,2.9428,2.9427,2.9426,0,2.9028,2.909,2.9136,2.9154,2.9199,2.922,2.924,2.9272,2.9295,2.9329,2.9344,2.9381,2.9401,2.943,2.9447,2.9432,2.9502,2.9485,2.9512,2.9512,2.9526,2.9525,2.9593,2.9538,2.9538,2.9538,2.9538,0,2.9078,2.9117,2.9149,2.9177,2.9221,2.924,2.9283,2.9302,2.9331,2.9363,2.9371,2.9401,2.9422,2.9455,2.9468,2.9513,2.9522,2.9532,2.9535,2.9532,2.953,2.9544,2.9542,2.954,2.9539,2.9539,2.9539,0,2.9114,2.9137,2.9188,2.9228,2.9239,2.927,2.9303,2.9331,2.9349,2.9391,2.9401,2.9429,2.9469,2.9489,2.9537,2.9546,2.9598,2.9598,2.9587,2.9588,2.9614,2.9612,2.9694,2.9706,2.9643,2.9643,2.9644,0,2.9145,2.9175,2.9219,2.9242,2.9263,2.9299,2.9324,2.9344,2.9369,2.941,2.9433,2.9474,2.9507,2.957,2.9594,2.9632,2.9634,2.966,2.9639,2.9636,2.9635,2.9634,2.9637,2.9664,2.9664,2.9665,2.9665,0,2.9197,2.9208,2.9243,2.9284,2.9313,2.9345,2.9377,2.9395,2.942,2.9448,2.949,2.9516,2.9567,2.9607,2.9647,2.9667,2.967,2.9672,2.968,2.9677,2.967,2.9675,2.9598,2.967,2.9669,2.9669,2.9669,2.9668,2.9232,2.926,2.9296,2.9336,2.9362,2.9393,2.9422,2.9444,2.948,2.9524,2.9533,2.9577,2.9611,2.9665,2.9686,2.9721,2.9715,2.9727,2.973,2.9733,2.9735,2.9664,2.9728,2.9728,2.9728,2.9728,2.9728,0,2.9286,2.931,2.9346,2.9392,2.9423,2.9426,2.9462,2.9488,2.9527,2.9559,2.9592,2.9641,2.968,2.9708,2.9749,2.9771,2.9774,2.9781,2.978,2.9785,2.9737,2.9726,2.9778,2.9778,2.9778,2.9778,2.9778,2.9778,2.9317,2.9366,2.938,2.9442,2.9466,2.951,2.9531,2.9559,2.9584,2.9639,2.9672,2.9691,2.9722,2.9765,2.9801,2.9809,2.9823,2.9831,2.9838,2.9793,2.9788,2.9783,2.9773,2.9833,2.9834,2.9883,2.9883,2.9883]}]]